period_start,C,m1,H,J0,J1,J2,J3,J4,J5,JA,JB,JC,JD,JJ,JK,JN,#
2016-08-12 00:02:38,0.01,0.27,0.00,25.19,29.04,31.65,14.29,47.33,1010.80,2033.00,3334.75,3032.94,3425.04,599.81,588.09,41.78,0000 0000 0000 0000 000000
2016-08-12 00:07:39,0.03,0.27,0.00,25.20,29.05,31.65,14.23,47.14,1010.93,2033.00,3334.02,3032.24,3424.94,599.99,588.33,41.83,0000 0000 0000 0000 000000
2016-08-12 00:12:41,0.02,0.28,0.00,25.21,29.05,31.66,14.28,47.09,1011.03,2033.00,3333.37,3032.01,3424.24,600.04,588.48,41.88,0000 0000 0000 0000 000000
2016-08-12 00:17:42,0.01,0.28,0.00,25.24,29.05,31.67,14.35,47.12,1011.04,2033.00,3332.89,3031.93,3423.97,600.34,588.64,41.93,0000 0000 0000 0000 000000
2016-08-12 00:22:43,0.04,0.28,0.00,25.27,29.06,31.68,14.30,47.17,1011.12,2033.00,3332.41,3031.23,3423.56,600.42,588.74,41.98,0000 0000 0000 0000 000000
2016-08-12 00:27:45,0.01,0.28,0.00,25.28,29.07,31.68,14.26,47.29,1011.11,2032.99,3331.98,3031.00,3423.02,599.92,588.25,42.03,0000 0000 0000 0000 000000
2016-08-12 00:32:46,0.04,0.28,0.00,25.30,29.07,31.69,14.23,47.15,1011.16,2032.99,3331.28,3030.66,3422.50,599.72,588.00,42.08,0000 0000 0000 0000 000000
2016-08-12 00:37:47,0.01,0.28,0.00,25.30,29.08,31.69,14.30,47.08,1011.22,2032.98,3330.96,3030.04,3422.01,600.13,588.44,42.13,0000 0000 0000 0000 000000
2016-08-12 00:42:49,0.01,0.28,0.00,25.32,29.10,31.71,14.37,47.12,1011.12,2032.96,3330.29,3029.98,3421.79,600.23,588.44,42.18,0000 0000 0000 0000 000000
2016-08-12 00:47:50,0.02,0.28,0.00,25.31,29.10,31.71,14.29,47.18,1010.86,2032.98,3329.94,3029.67,3421.08,600.04,588.18,42.23,0000 0000 0000 0000 000000
2016-08-12 00:52:51,0.02,0.29,0.00,25.32,29.10,31.72,14.19,47.15,1010.78,2032.92,3329.11,3029.03,3420.84,600.23,588.25,42.28,0000 0000 0000 0000 000000
2016-08-12 00:57:52,0.02,0.29,0.00,25.32,29.12,31.71,14.30,47.02,1010.78,2032.90,3328.65,3028.95,3420.09,600.26,588.18,42.33,0000 0000 0000 0000 000000
2016-08-12 01:02:54,0.02,0.29,0.00,25.35,29.12,31.73,14.27,47.25,1010.77,2032.82,3328.07,3028.31,3419.99,600.06,588.04,42.38,0000 0000 0000 0000 000000
2016-08-12 01:07:55,0.02,0.29,0.00,25.35,29.12,31.72,14.32,47.08,1010.77,2032.72,3327.76,3028.01,3419.40,600.30,588.31,42.43,0000 0000 0000 0000 000000
2016-08-12 01:12:57,0.02,0.29,0.00,25.36,29.14,31.74,14.23,46.95,1010.77,2032.80,3327.04,3027.96,3418.99,599.33,587.38,42.48,0000 0000 0000 0000 000000
2016-08-12 01:17:58,0.02,0.29,0.00,25.37,29.15,31.73,14.29,47.23,1010.77,2032.47,3326.48,3027.20,3418.34,599.86,587.82,42.54,0000 0000 0000 0000 000000
2016-08-12 01:22:59,-0.00,0.29,0.00,25.40,29.15,31.73,14.25,47.08,1010.77,2032.33,3325.85,3026.88,3417.92,599.87,587.58,42.59,0000 0000 0000 0000 000000
2016-08-12 01:28:01,0.04,0.29,0.00,25.40,29.16,31.76,14.21,47.16,1010.77,2032.16,3325.06,3026.14,3417.14,599.45,587.38,42.64,0000 0000 0000 0000 000000
2016-08-12 01:33:01,0.02,0.29,0.00,25.41,29.17,31.76,14.26,47.11,1010.78,2032.08,3324.39,3025.96,3416.76,599.86,587.75,42.69,0000 0000 0000 0000 000000
2016-08-12 01:38:02,0.04,0.29,0.00,25.42,29.17,31.79,14.27,46.89,1010.77,2032.04,3323.80,3025.26,3416.04,600.18,587.95,42.74,0000 0000 0000 0000 000000
2016-08-12 01:43:04,0.01,0.30,0.00,25.43,29.18,31.79,14.27,47.17,1010.77,2032.07,3323.05,3025.00,3415.73,599.91,587.70,42.79,0000 0000 0000 0000 000000
2016-08-12 01:48:05,0.03,0.30,0.00,25.43,29.20,31.80,14.28,47.31,1010.77,2032.01,3322.47,3024.62,3415.03,600.03,587.76,42.84,0000 0000 0000 0000 000000
2016-08-12 01:53:06,0.02,0.30,0.00,25.45,29.20,31.80,14.22,47.29,1010.76,2032.02,3321.81,3024.03,3414.55,599.71,587.36,42.89,0000 0000 0000 0000 000000
2016-08-12 01:58:08,0.02,0.30,0.00,25.47,29.20,31.80,14.22,47.22,1010.74,2032.01,3321.06,3023.90,3414.00,599.88,587.58,42.94,0000 0000 0000 0000 000000
2016-08-12 02:03:09,0.04,0.30,0.00,25.47,29.21,31.81,14.27,47.33,1010.72,2032.00,3320.48,3023.12,3413.47,599.97,587.62,42.99,0000 0000 0000 0000 000000
2016-08-12 02:08:10,0.00,0.30,0.00,25.47,29.22,31.83,14.27,47.27,1010.72,2032.00,3319.94,3022.99,3413.00,599.71,587.31,43.04,0000 0000 0000 0000 000000
2016-08-12 02:13:12,0.03,0.30,0.00,25.47,29.22,31.84,14.27,47.31,1010.71,2032.00,3319.16,3022.67,3412.56,599.69,587.41,43.09,0000 0000 0000 0000 000000
2016-08-12 02:18:13,0.02,0.31,0.00,25.47,29.22,31.83,14.22,47.19,1010.76,2032.00,3318.79,3022.05,3412.01,600.17,587.86,43.14,0000 0000 0000 0000 000000
2016-08-12 02:23:14,0.01,0.31,0.00,25.48,29.22,31.83,14.30,47.18,1010.76,2032.00,3318.05,3022.00,3411.84,600.42,588.05,43.19,0000 0000 0000 0000 000000
2016-08-12 02:28:15,0.02,0.31,0.00,25.49,29.22,31.84,14.34,47.25,1010.77,2032.00,3317.72,3021.78,3411.09,600.67,588.34,43.24,0000 0000 0000 0000 000000
2016-08-12 02:33:16,0.02,0.31,0.00,25.50,29.22,31.86,14.32,47.37,1010.76,2032.00,3317.04,3021.14,3411.00,600.50,588.00,43.29,0000 0000 0000 0000 000000
2016-08-12 02:38:18,0.00,0.31,0.00,25.51,29.22,31.85,14.22,47.27,1010.77,2032.00,3316.95,3021.00,3410.86,599.67,587.36,43.34,0000 0000 0000 0000 000000
2016-08-12 02:43:19,0.02,0.31,0.00,25.50,29.22,31.87,14.28,47.38,1010.77,2032.00,3316.38,3021.00,3410.22,600.02,587.65,43.39,0000 0000 0000 0000 000000
2016-08-12 02:48:21,0.00,0.31,0.00,25.51,29.22,31.85,14.36,47.25,1010.87,2032.00,3316.03,3020.98,3410.01,600.24,587.95,43.44,0000 0000 0000 0000 000000
2016-08-12 02:53:22,0.00,0.31,0.00,25.52,29.23,31.86,14.22,47.01,1010.95,2032.00,3316.00,3020.91,3410.00,599.85,587.63,43.49,0000 0000 0000 0000 000000
2016-08-12 02:58:23,0.01,0.31,0.00,25.53,29.24,31.86,14.20,47.12,1011.10,2032.00,3315.99,3020.58,3410.00,599.73,587.52,43.54,0000 0000 0000 0000 000000
2016-08-12 03:03:25,0.01,0.31,0.00,25.53,29.24,31.86,14.26,47.14,1011.10,2032.00,3315.75,3020.15,3409.93,599.74,587.55,43.60,0000 0000 0000 0000 000000
2016-08-12 03:08:26,0.02,0.31,0.00,25.55,29.25,31.88,14.28,47.10,1011.07,2032.00,3315.07,3020.00,3409.29,600.06,587.80,43.65,0000 0000 0000 0000 000000
2016-08-12 03:13:27,0.00,0.31,0.00,25.55,29.25,31.88,14.25,47.22,1011.19,2032.00,3314.88,3019.99,3409.01,600.01,587.78,43.70,0000 0000 0000 0000 000000
2016-08-12 03:18:28,0.03,0.32,0.00,25.56,29.25,31.90,14.25,46.96,1011.13,2032.00,3314.14,3019.68,3408.82,599.96,587.71,43.75,0000 0000 0000 0000 000000
2016-08-12 03:23:29,0.02,0.32,0.00,25.57,29.26,31.89,14.30,47.15,1010.92,2032.00,3313.96,3019.09,3408.11,600.05,587.74,43.80,0000 0000 0000 0000 000000
2016-08-12 03:28:30,0.01,0.32,0.00,25.57,29.27,31.91,14.28,47.33,1010.81,2032.00,3313.25,3019.00,3408.00,599.74,587.36,43.85,0000 0000 0000 0000 000000
2016-08-12 03:33:31,0.01,0.32,0.00,25.59,29.27,31.89,14.27,47.10,1010.78,2032.00,3312.99,3018.95,3407.70,600.17,587.49,43.90,0000 0000 0000 0000 000000
2016-08-12 03:38:33,0.04,0.32,0.00,25.62,29.27,31.88,14.34,47.17,1010.77,2032.00,3312.40,3018.27,3407.03,600.28,587.75,43.95,0000 0000 0000 0000 000000
2016-08-12 03:43:34,0.01,0.32,0.00,25.62,29.29,31.92,14.27,47.15,1010.76,2032.00,3311.93,3018.00,3406.83,599.89,587.33,44.00,0000 0000 0000 0000 000000
2016-08-12 03:48:35,0.03,0.32,0.00,25.62,29.30,31.95,14.28,47.38,1010.76,2031.99,3311.22,3017.73,3406.07,600.05,587.40,44.05,0000 0000 0000 0000 000000
2016-08-12 03:53:36,0.03,0.32,0.00,25.62,29.30,31.94,14.27,47.44,1010.76,2031.98,3310.63,3017.06,3405.88,599.82,586.99,44.10,0000 0000 0000 0000 000000
2016-08-12 03:58:38,0.01,0.33,0.00,25.64,29.30,31.94,14.29,47.27,1010.76,2031.98,3310.03,3017.00,3405.13,600.05,587.41,44.15,0000 0000 0000 0000 000000
2016-08-12 04:03:39,0.02,0.33,0.00,25.65,29.31,31.95,14.28,47.21,1010.74,2031.98,3309.63,3016.80,3404.98,600.49,587.82,44.20,0000 0000 0000 0000 000000
2016-08-12 04:08:41,0.03,0.33,0.00,25.65,29.32,31.96,14.30,47.23,1010.48,2031.95,3308.93,3016.06,3404.26,600.12,587.20,44.25,0000 0000 0000 0000 000000
2016-08-12 04:13:42,0.01,0.33,0.00,25.67,29.32,31.95,14.25,47.30,1010.31,2031.90,3308.10,3015.92,3403.82,600.13,587.32,44.30,0000 0000 0000 0000 000000
2016-08-12 04:18:43,0.04,0.33,0.00,25.69,29.32,31.98,14.23,47.23,1010.28,2031.85,3307.47,3015.20,3403.09,599.63,586.63,44.35,0000 0000 0000 0000 000000
2016-08-12 04:23:44,0.01,0.33,0.00,25.68,29.33,32.02,14.21,47.19,1010.27,2031.86,3306.94,3015.00,3402.91,599.83,586.83,44.40,0000 0000 0000 0000 000000
2016-08-12 04:28:46,0.03,0.33,0.00,25.70,29.35,32.00,14.22,47.29,1010.27,2031.88,3306.19,3014.83,3402.18,599.85,586.82,44.45,0000 0000 0000 0000 000000
2016-08-12 04:33:47,0.02,0.33,0.00,25.70,29.35,32.00,14.25,47.34,1010.27,2031.88,3305.73,3014.12,3401.95,599.83,586.70,44.51,0000 0000 0000 0000 000000
2016-08-12 04:38:48,0.02,0.34,0.00,25.70,29.35,32.03,14.28,47.48,1010.27,2031.79,3305.00,3013.98,3401.20,600.20,587.17,44.56,0000 0000 0000 0000 000000
2016-08-12 04:43:49,0.05,0.34,0.00,25.72,29.36,32.02,14.17,47.25,1010.27,2031.80,3304.16,3013.24,3400.69,600.01,586.95,44.61,0000 0000 0000 0000 000000
2016-08-12 04:48:50,0.01,0.34,0.00,25.73,29.37,32.05,14.30,47.54,1010.27,2031.74,3303.63,3012.99,3400.04,600.14,587.06,44.66,0000 0000 0000 0000 000000
2016-08-12 04:53:52,0.03,0.34,0.00,25.73,29.37,32.09,14.32,47.56,1010.25,2031.58,3302.86,3012.44,3399.59,600.26,587.01,44.71,0000 0000 0000 0000 000000
2016-08-12 04:58:53,0.01,0.34,0.00,25.75,29.39,32.06,14.21,47.43,1010.20,2031.35,3301.98,3011.98,3398.96,599.73,586.57,44.76,0000 0000 0000 0000 000000
2016-08-12 05:03:54,0.04,0.34,0.00,25.76,29.40,32.05,14.23,47.50,1010.08,2031.38,3301.20,3011.41,3398.24,599.90,586.68,44.81,0000 0000 0000 0000 000000
2016-08-12 05:08:55,0.01,0.34,0.00,25.77,29.40,32.05,14.26,47.42,1010.08,2031.11,3300.37,3010.94,3397.62,600.08,586.76,44.86,0000 0000 0000 0000 000000
2016-08-12 05:13:56,0.04,0.35,0.00,25.77,29.42,32.09,14.28,47.35,1010.07,2031.07,3299.54,3010.17,3396.91,600.34,586.94,44.91,0000 0000 0000 0000 000000
2016-08-12 05:18:57,0.02,0.35,0.00,25.79,29.42,32.12,14.23,47.33,1009.97,2031.04,3298.68,3009.91,3396.10,600.37,586.92,44.96,0000 0000 0000 0000 000000
2016-08-12 05:23:59,0.04,0.35,0.00,25.81,29.45,32.10,14.24,47.10,1009.82,2031.02,3297.95,3009.13,3395.65,600.10,586.47,45.01,0000 0000 0000 0000 000000
2016-08-12 05:29:00,0.02,0.35,0.00,25.82,29.45,32.16,14.27,47.55,1009.85,2031.01,3297.06,3008.85,3394.97,599.85,586.45,45.06,0000 0000 0000 0000 000000
2016-08-12 05:34:01,0.04,0.35,0.00,25.82,29.46,32.14,14.21,47.25,1009.89,2031.00,3296.25,3008.10,3394.22,600.03,586.48,45.11,0000 0000 0000 0000 000000
2016-08-12 05:39:03,0.03,0.35,0.00,25.82,29.47,32.17,14.27,47.48,1009.85,2031.00,3295.34,3007.95,3393.60,600.04,586.48,45.16,0000 0000 0000 0000 000000
2016-08-12 05:44:04,0.04,0.36,0.00,25.84,29.47,32.14,14.19,47.27,1009.86,2031.00,3294.62,3007.24,3393.02,599.80,586.27,45.21,0000 0000 0000 0000 000000
2016-08-12 05:49:05,0.02,0.36,0.00,25.86,29.50,32.17,14.26,47.48,1009.85,2031.00,3293.97,3006.99,3392.49,599.95,586.36,45.26,0000 0000 0000 0000 000000
2016-08-12 05:54:06,0.03,0.36,0.00,25.89,29.50,32.21,14.22,47.26,1009.83,2031.00,3293.18,3006.49,3391.93,599.80,586.13,45.31,0000 0000 0000 0000 000000
2016-08-12 05:59:08,0.03,0.36,0.00,25.88,29.51,32.20,14.27,47.43,1009.97,2030.98,3292.39,3006.00,3391.12,600.18,586.61,45.36,0000 0000 0000 0000 000000
2016-08-12 06:04:09,0.03,0.36,0.00,25.88,29.52,32.22,14.22,47.14,1010.02,2030.98,3291.65,3005.51,3390.89,599.89,586.28,45.41,0000 0000 0000 0000 000000
2016-08-12 06:09:10,0.02,0.36,0.00,25.89,29.52,32.23,14.27,47.32,1010.12,2030.98,3290.92,3005.01,3390.10,600.22,586.63,45.46,0000 0000 0000 0000 000000
2016-08-12 06:14:12,0.04,0.37,0.00,25.91,29.55,32.24,14.12,47.17,1010.21,2030.96,3290.05,3004.51,3389.50,599.58,586.21,45.52,0000 0000 0000 0000 000000
2016-08-12 06:19:13,0.02,0.37,0.00,25.93,29.55,32.23,14.32,47.33,1010.20,2030.94,3289.18,3004.01,3388.97,600.30,586.73,45.57,0000 0000 0000 0000 000000
2016-08-12 06:24:14,0.03,0.37,0.00,25.95,29.56,32.24,14.23,47.28,1010.23,2030.88,3288.58,3003.64,3388.17,600.24,586.61,45.62,0000 0000 0000 0000 000000
2016-08-12 06:29:16,0.02,0.37,0.00,25.96,29.57,32.26,14.25,47.29,1010.18,2030.75,3287.64,3003.01,3387.59,600.07,586.49,45.67,0000 0000 0000 0000 000000
2016-08-12 06:34:17,0.01,0.37,0.00,25.97,29.58,32.27,14.26,47.27,1010.02,2030.60,3286.79,3002.46,3386.86,600.51,586.77,45.72,0000 0000 0000 0000 000000
2016-08-12 06:39:19,0.02,0.37,0.00,25.99,29.60,32.28,14.25,47.13,1009.90,2030.40,3285.85,3001.95,3386.04,600.33,586.56,45.77,0000 0000 0000 0000 000000
2016-08-12 06:44:20,0.02,0.37,0.00,26.02,29.61,32.27,14.22,47.43,1009.84,2030.12,3285.11,3001.17,3385.47,599.88,586.01,45.82,0000 0000 0000 0000 000000
2016-08-12 06:49:22,0.04,0.37,0.00,26.01,29.63,32.27,14.27,47.60,1009.82,2030.03,3284.28,3000.68,3384.76,600.01,586.05,45.87,0000 0000 0000 0000 000000
2016-08-12 06:54:23,0.03,0.38,0.00,26.05,29.65,32.29,14.22,47.45,1009.86,2030.02,3283.47,3000.04,3384.02,599.57,585.63,45.92,0000 0000 0000 0000 000000
2016-08-12 06:59:24,0.05,0.38,0.00,26.06,29.67,32.29,14.23,47.24,1009.87,2030.00,3282.44,2999.49,3383.19,599.67,585.70,45.97,0000 0000 0000 0000 000000
2016-08-12 07:04:25,0.03,0.38,0.00,26.09,29.69,32.33,14.17,47.42,1009.84,2030.00,3281.64,2998.94,3382.52,599.52,585.50,46.02,0000 0000 0000 0000 000000
2016-08-12 07:09:26,0.04,0.38,0.00,26.10,29.71,32.35,14.20,47.39,1009.87,2030.00,3280.75,2998.15,3381.83,599.94,585.99,46.07,0000 0000 0000 0000 000000
2016-08-12 07:14:28,0.02,0.39,0.00,26.12,29.73,32.37,14.25,47.34,1009.88,2029.99,3280.00,2997.89,3381.08,600.13,586.05,46.12,0000 0000 0000 0000 000000
2016-08-12 07:19:29,0.04,0.39,0.00,26.13,29.75,32.38,14.18,47.44,1010.22,2029.96,3279.19,2997.10,3380.41,600.11,586.13,46.17,0000 0000 0000 0000 000000
2016-08-12 07:24:31,0.02,0.39,0.00,26.14,29.77,32.40,14.25,47.46,1010.19,2029.91,3278.33,2996.77,3379.83,600.26,586.22,46.22,0000 0000 0000 0000 000000
2016-08-12 07:29:32,0.02,0.39,0.00,26.16,29.78,32.37,14.18,47.49,1010.24,2029.77,3277.61,2996.06,3379.06,600.03,586.06,46.27,0000 0000 0000 0000 000000
2016-08-12 07:34:33,0.03,0.39,0.00,26.17,29.80,32.40,14.22,47.73,1010.21,2029.60,3276.73,2995.77,3378.41,599.83,585.84,46.32,0000 0000 0000 0000 000000
2016-08-12 07:39:34,0.01,0.39,0.00,26.20,29.82,32.40,14.09,47.37,1010.17,2029.41,3275.89,2995.08,3377.82,599.62,585.62,46.37,0000 0000 0000 0000 000000
2016-08-12 07:44:36,0.02,0.39,0.00,26.22,29.84,32.42,14.26,47.35,1010.13,2029.16,3275.04,2994.70,3377.04,600.14,585.99,46.42,0000 0000 0000 0000 000000
2016-08-12 07:49:37,0.02,0.39,0.00,26.26,29.86,32.46,14.30,47.58,1009.93,2029.05,3274.39,2994.02,3376.46,600.26,585.83,46.48,0000 0000 0000 0000 000000
2016-08-12 07:54:38,0.02,0.40,0.00,26.26,29.88,32.46,14.24,47.39,1009.86,2029.02,3273.77,2993.62,3375.97,599.73,585.32,46.53,0000 0000 0000 0000 000000
2016-08-12 07:59:40,0.03,0.40,0.00,26.30,29.91,32.47,14.26,47.67,1010.07,2029.00,3273.00,2993.02,3375.20,600.13,585.79,46.58,0000 0000 0000 0000 000000
2016-08-12 08:04:42,0.04,0.40,0.00,26.33,29.93,32.48,14.19,47.60,1010.10,2029.00,3272.17,2992.60,3374.66,599.81,585.42,46.63,0000 0000 0000 0000 000000
2016-08-12 08:09:43,0.02,0.40,0.00,26.36,29.95,32.50,14.23,47.53,1010.16,2028.99,3271.56,2992.02,3374.03,600.11,585.70,46.68,0000 0000 0000 0000 000000
2016-08-12 08:14:44,0.04,0.40,0.00,26.36,29.97,32.52,14.15,47.30,1010.15,2028.97,3270.89,2991.64,3373.45,599.88,585.46,46.73,0000 0000 0000 0000 000000
2016-08-12 08:19:46,-0.00,0.40,0.00,26.38,30.00,32.54,14.20,47.60,1010.02,2028.80,3270.06,2991.02,3372.86,600.02,585.42,46.78,0000 0000 0000 0000 000000
2016-08-12 08:24:47,0.01,0.40,0.00,26.42,30.02,32.56,14.22,47.49,1010.03,2028.31,3269.38,2990.42,3372.09,599.70,585.10,46.83,0000 0000 0000 0000 000000
2016-08-12 08:29:49,0.01,0.40,0.00,26.45,30.05,32.56,14.21,47.42,1010.14,2028.03,3268.56,2989.99,3371.44,599.91,585.29,46.88,0000 0000 0000 0000 000000
2016-08-12 08:34:50,0.03,0.41,0.00,26.47,30.08,32.58,14.22,47.58,1010.23,2028.00,3267.93,2989.21,3370.93,599.72,585.14,46.93,0000 0000 0000 0000 000000
2016-08-12 08:39:51,0.02,0.41,0.00,26.49,30.10,32.59,14.27,47.67,1010.24,2028.00,3267.22,2988.91,3370.21,599.81,585.00,46.98,0000 0000 0000 0000 000000
2016-08-12 08:44:52,0.05,0.41,0.00,26.51,30.13,32.63,14.24,47.49,1010.21,2027.99,3266.27,2988.10,3369.46,600.34,585.70,47.03,0000 0000 0000 0000 000000
2016-08-12 08:49:54,0.03,0.41,0.00,26.54,30.15,32.65,14.17,47.33,1010.25,2027.98,3265.53,2987.75,3368.78,599.85,585.16,47.08,0000 0000 0000 0000 000000
2016-08-12 08:54:55,0.03,0.41,0.00,26.56,30.17,32.66,14.23,47.32,1010.23,2027.92,3264.69,2987.03,3368.04,599.92,585.15,47.13,0000 0000 0000 0000 000000
2016-08-12 08:59:56,-0.00,0.41,0.00,26.60,30.20,32.66,14.17,47.30,1010.26,2027.62,3263.90,2986.61,3367.32,600.06,585.26,47.18,0000 0000 0000 0000 000000
2016-08-12 09:04:57,-0.01,0.41,0.00,26.62,30.22,32.68,14.32,47.64,1010.27,2027.07,3263.08,2985.99,3366.85,600.62,585.73,47.23,0000 0000 0000 0000 000000
2016-08-12 09:09:58,0.04,0.41,0.00,26.64,30.25,32.72,14.18,47.38,1010.26,2027.01,3262.38,2985.34,3366.03,599.93,585.09,47.28,0000 0000 0000 0000 000000
2016-08-12 09:15:00,0.01,0.42,0.00,26.68,30.26,32.73,14.20,47.19,1010.26,2027.00,3261.92,2985.00,3365.48,600.44,585.40,47.33,0000 0000 0000 0000 000000
2016-08-12 09:20:01,0.04,0.42,0.00,26.72,30.29,32.75,14.25,47.50,1010.27,2027.00,3260.98,2984.49,3364.89,600.37,585.25,47.38,0000 0000 0000 0000 000000
2016-08-12 09:25:02,0.02,0.42,0.00,26.75,30.31,32.78,14.23,47.39,1010.28,2026.99,3260.09,2984.00,3364.10,600.08,584.99,47.44,0000 0000 0000 0000 000000
2016-08-12 09:30:04,0.05,0.42,0.00,26.78,30.33,32.80,14.16,47.39,1010.27,2026.99,3259.32,2983.48,3363.56,600.09,584.93,47.49,0000 0000 0000 0000 000000
2016-08-12 09:35:05,0.01,0.42,0.00,26.81,30.36,32.82,14.14,47.44,1010.27,2026.98,3258.81,2983.01,3363.00,600.21,585.09,47.54,0000 0000 0000 0000 000000
2016-08-12 09:40:06,0.03,0.42,0.00,26.84,30.38,32.81,14.22,47.46,1010.27,2026.90,3258.02,2982.50,3362.43,599.85,584.50,47.59,0000 0000 0000 0000 000000
2016-08-12 09:45:07,-0.01,0.43,0.00,26.87,30.41,32.85,14.12,47.46,1010.28,2026.58,3257.17,2982.00,3361.80,600.22,584.88,47.64,0000 0000 0000 0000 000000
2016-08-12 09:50:09,0.01,0.43,0.00,26.90,30.43,32.88,14.13,47.30,1010.28,2026.22,3256.39,2981.51,3361.06,599.79,584.40,47.69,0000 0000 0000 0000 000000
2016-08-12 09:55:10,0.02,0.43,0.00,26.92,30.46,32.90,14.22,47.35,1010.28,2026.04,3255.63,2981.00,3360.36,600.20,584.89,47.74,0000 0000 0000 0000 000000
2016-08-12 10:00:11,0.04,0.43,0.00,26.95,30.48,32.94,14.20,47.31,1010.28,2026.01,3254.82,2980.45,3359.79,599.96,584.57,47.79,0000 0000 0000 0000 000000
2016-08-12 10:05:12,0.02,0.43,0.00,26.97,30.50,32.95,14.20,47.17,1010.27,2026.01,3253.93,2979.99,3359.03,599.81,584.29,47.84,0000 0000 0000 0000 000000
2016-08-12 10:10:13,0.05,0.43,0.00,27.00,30.53,32.97,14.16,47.36,1010.28,2026.00,3253.07,2979.43,3358.28,599.59,584.22,47.89,0000 0000 0000 0000 000000
2016-08-12 10:15:15,0.01,0.43,0.00,27.02,30.55,32.99,14.23,47.37,1010.28,2026.00,3252.65,2979.00,3357.97,600.00,584.33,47.94,0000 0000 0000 0000 000000
2016-08-12 10:20:16,0.04,0.43,0.00,27.03,30.57,33.01,14.24,47.58,1010.27,2025.97,3251.98,2978.48,3357.29,600.14,584.53,47.99,0000 0000 0000 0000 000000
2016-08-12 10:25:17,0.00,0.44,0.00,27.04,30.60,33.06,14.19,47.29,1010.27,2025.86,3251.19,2978.00,3356.82,600.15,584.49,48.04,0000 0000 0000 0000 000000
2016-08-12 10:30:19,0.02,0.44,0.00,27.06,30.62,33.07,14.21,47.38,1010.27,2025.59,3250.61,2977.42,3356.06,600.08,584.34,48.09,0000 0000 0000 0000 000000
2016-08-12 10:35:20,-0.01,0.44,0.00,27.09,30.65,33.11,14.23,47.46,1010.27,2025.24,3249.89,2977.00,3355.59,599.93,584.16,48.14,0000 0000 0000 0000 000000
2016-08-12 10:40:21,0.02,0.44,0.00,27.09,30.67,33.15,14.20,47.46,1010.27,2025.08,3249.15,2976.72,3355.01,599.53,583.88,48.19,0000 0000 0000 0000 000000
2016-08-12 10:45:23,0.02,0.44,0.00,27.12,30.70,33.14,14.21,47.38,1010.34,2025.02,3248.71,2976.03,3354.56,599.93,584.14,48.24,0000 0000 0000 0000 000000
2016-08-12 10:50:24,0.02,0.44,0.00,27.16,30.72,33.19,14.18,47.16,1010.73,2025.00,3248.01,2975.77,3354.00,600.01,584.39,48.29,0000 0000 0000 0000 000000
2016-08-12 10:55:25,0.04,0.44,0.00,27.17,30.74,33.18,14.16,47.43,1010.76,2025.00,3247.21,2975.04,3353.32,600.02,584.41,48.34,0000 0000 0000 0000 000000
2016-08-12 11:00:26,0.06,0.45,0.00,27.17,30.76,33.21,14.13,47.52,1010.76,2025.00,3245.78,2974.29,3352.16,599.52,583.83,48.39,0000 0000 0000 0000 000000
2016-08-12 11:05:28,0.03,0.45,0.00,27.19,30.79,33.25,14.21,47.38,1010.87,2024.99,3244.68,2973.95,3351.36,600.20,584.60,48.45,0000 0000 0000 0000 000000
2016-08-12 11:10:29,0.03,0.45,0.00,27.21,30.80,33.30,14.26,47.58,1011.11,2024.99,3244.01,2973.22,3350.93,600.33,584.82,48.50,0000 0000 0000 0000 000000
2016-08-12 11:15:30,0.02,0.45,0.00,27.22,30.82,33.27,14.13,47.27,1011.23,2024.96,3243.29,2972.98,3350.14,599.70,584.38,48.55,0000 0000 0000 0000 000000
2016-08-12 11:20:31,0.03,0.45,0.00,27.24,30.84,33.30,14.11,47.33,1011.25,2024.94,3242.86,2972.36,3349.89,599.83,584.46,48.60,0000 0000 0000 0000 000000
2016-08-12 11:25:33,0.00,0.45,0.00,27.25,30.85,33.31,14.17,47.32,1011.29,2024.78,3242.07,2972.01,3349.16,599.83,584.38,48.65,0000 0000 0000 0000 000000
2016-08-12 11:30:34,-0.01,0.45,0.00,27.26,30.87,33.31,14.10,47.06,1011.67,2024.32,3241.37,2971.64,3348.83,599.70,584.46,48.70,0000 0000 0000 0000 000000
2016-08-12 11:35:35,0.02,0.45,0.00,27.28,30.87,33.34,14.15,47.13,1011.73,2024.13,3240.77,2971.04,3348.06,599.75,584.48,48.75,0000 0000 0000 0000 000000
2016-08-12 11:40:36,0.02,0.45,0.00,27.29,30.90,33.35,14.18,47.17,1011.73,2024.09,3240.03,2970.97,3347.72,600.22,584.89,48.80,0000 0000 0000 0000 000000
2016-08-12 11:45:37,0.04,0.46,0.00,27.31,30.91,33.37,14.21,47.10,1011.73,2024.03,3239.13,2970.26,3346.96,600.46,585.12,48.85,0000 0000 0000 0000 000000
2016-08-12 11:50:38,0.03,0.46,0.00,27.32,30.92,33.38,14.14,47.08,1011.73,2024.02,3238.42,2969.99,3346.26,599.60,584.26,48.90,0000 0000 0000 0000 000000
2016-08-12 11:55:40,0.02,0.46,0.00,27.32,30.93,33.41,14.18,47.08,1011.73,2024.01,3237.99,2969.52,3345.99,599.60,584.21,48.95,0000 0000 0000 0000 000000
2016-08-12 12:00:41,0.03,0.46,0.00,27.34,30.95,33.45,14.23,47.32,1011.73,2024.00,3237.26,2969.01,3345.51,600.48,585.00,49.00,0000 0000 0000 0000 000000
2016-08-12 12:05:42,0.00,0.46,0.00,27.36,30.96,33.44,14.16,47.08,1011.73,2024.01,3236.93,2968.98,3345.01,599.71,584.20,49.05,0000 0000 0000 0000 000000
